Location: Izdebno
(52.6670°N, 16.2170°E)
Time: 02:37:58
(UTC+02:00)

Transit 2A - Pass Details

Date: 23 February 2024
Orbit: 596 x 956 km, 66.7° (Epoch: 21 April)

Event Time Altitude Azimuth Distance (km) Brightness Sun altitude
Rises 05:29:47 0° 314° (NW) 2,989 - -13.8°
Reaches altitude 10° 05:32:16 10° 302° (WNW) 2,121 - -13.5°
Exits shadow 05:33:49 18° 288° (WNW) 1,671 7.2 -13.2°
Maximum altitude 05:36:19 28° 245° (WSW) 1,344 6.8 -12.8°
Drops below altitude 10° 05:40:41 10° 188° (S) 2,300 8.4 -12.2°
Sets 05:43:29 0° 177° (S) 3,290 9.3 -11.7°
